Volver al catálogo

ARIANE 2 DEB

LostGTO
NORAD 33572·DEBRIS·🇫🇷 France

Lanzado Jan 27, 1989 desde Guiana Space Centre

Loading…

TLE

ObsoletoSource: Space-Track

Época: Jun 8, 2022, 17:48 UTC

1 33572U 89006BQ  22159.74200144  .00000013  00000-0  00000+0 0  9997
2 33572   7.5179 301.2834 7003604  35.0893  49.1207  2.23228130132170

Sigue ARIANE 2 DEB en tiempo real con AllMySat

Download on the App Store